sat.trackr.live / text

‹ back to catalog

STARLINK-32449

NORAD 61670 · 2024-193K

PAYLOAD ACTIVE UNKNOWN

§ Identity

Operator
Country
US
Launch date
2024-10-26
Launch site
AFETR
Launch vehicle
Mass (kg)
RCS (m²)

Purposes: comms

External: N2YO · Heavens-Above · Gunter

§ Orbital elements

Epoch: 2026-05-25T03:46:54.239808Z

Period
94.11 min
Inclination
53.1610°
Eccentricity
0.0001237
Mean motion
15.30193631 rev/d
Perigee alt
474.4 km
Apogee alt
476.1 km
Semi-major
6,853.4 km
B*
1.1871e-5
RAAN
95.8636°
Arg perigee
95.7463°
Mean anomaly
264.3679°
Rev number
8,823

§ Raw data

STARLINK-324491 61670U 24193K   26145.15757222 -.00000008  00000+0  11871-4 0  99982 61670  53.1610  95.8636 0001237  95.7463 264.3679 15.30193631 88232

JSON: /api/v1/satellites/61670 · /tle

For live sub-satellite position, see the globe view (requires WebGL).

§ Visibility from observer

Set your observer location to see the next 7 days of passes ≥ 10°. The values pass through the URL so the page stays shareable.

No JS? Fill the form by hand. The geolocation button needs JavaScript.